"Period start","avg(HW err(1)/warn(2) (#))","avg(Visibility (m))","avg(Weather code (#))","avg(Precip intensity (mm/h))","min(HW err(1)/warn(2) (#))","max(HW err(1)/warn(2) (#))","std(HW err(1)/warn(2) (#))","med(HW err(1)/warn(2) (#))","min(Visibility (m))","max(Visibility (m))","std(Visibility (m))","med(Visibility (m))","min(Weather code (#))","max(Weather code (#))","std(Weather code (#))","med(Weather code (#))","min(Precip intensity (mm/h))","max(Precip intensity (mm/h))","std(Precip intensity (mm/h))","med(Precip intensity (mm/h))"
2016-10-02 00:00:00,2,41480,0,0.00,2,2,0,2,33727,50000,5370,40056,0,0,0,0,0.00,0.00,0.00,0.00
2016-10-02 00:10:00,2,47230,0,0.00,2,2,0,2,38764,50000,4196,50000,0,0,0,0,0.00,0.00,0.00,0.00
2016-10-02 00:20:00,2,46245,0,0.00,2,2,0,2,38292,50000,4044,47741,0,0,0,0,0.00,0.00,0.00,0.00
2016-10-02 00:30:00,2,38954,0,0.00,2,2,0,2,34967,41600,2226,39454,0,0,0,0,0.00,0.00,0.00,0.00
2016-10-02 00:40:00,2,40568,0,0.00,2,2,0,2,34728,48744,3891,40390,0,0,0,0,0.00,0.00,0.00,0.00
2016-10-02 00:50:00,2,42165,0,0.00,2,2,0,2,35412,46387,3744,42094,0,0,0,0,0.00,0.00,0.00,0.00
2016-10-02 01:00:00,2,43816,0,0.00,2,2,0,2,33956,50000,5058,43666,0,0,0,0,0.00,0.00,0.00,0.00
2016-10-02 01:10:00,2,36353,0,0.00,2,2,0,2,31792,41859,3482,36368,0,0,0,0,0.00,0.00,0.00,0.00
2016-10-02 01:20:00,2,38848,0,0.00,2,2,0,2,31059,44452,4084,39052,0,0,0,0,0.00,0.00,0.00,0.00
2016-10-02 01:30:00,2,44978,0,0.00,2,2,0,2,34074,50000,4993,47346,0,0,0,0,0.00,0.00,0.00,0.00
2016-10-02 01:40:00,2,47791,0,0.00,2,2,0,2,43479,50000,2730,49894,0,0,0,0,0.00,0.00,0.00,0.00
2016-10-02 01:50:00,2,44563,0,0.00,2,2,0,2,40094,48539,2758,44838,0,0,0,0,0.00,0.00,0.00,0.00
2016-10-02 02:00:00,2,42555,0,0.00,2,2,0,2,36877,50000,4094,43474,0,0,0,0,0.00,0.00,0.00,0.00
2016-10-02 02:10:00,2,46893,0,0.00,2,2,0,2,41614,50000,2681,47826,0,0,0,0,0.00,0.00,0.00,0.00
2016-10-02 02:20:00,2,45481,0,0.00,2,2,0,2,39847,50000,3354,46170,0,0,0,0,0.00,0.00,0.00,0.00
2016-10-02 02:30:00,2,37180,0,0.00,2,2,0,2,28104,47751,6136,34294,0,0,0,0,0.00,0.00,0.00,0.00
2016-10-02 02:40:00,2,29482,0,0.00,2,2,0,2,16095,44154,8326,26656,0,0,0,0,0.00,0.00,0.00,0.00
2016-10-02 02:50:00,2,42104,0,0.00,2,2,0,2,36594,50000,4582,41124,0,0,0,0,0.00,0.00,0.00,0.00
2016-10-02 03:00:00,2,37446,0,0.00,2,2,0,2,33099,42403,2965,37906,0,0,0,0,0.00,0.00,0.00,0.00
2016-10-02 03:10:00,2,38898,0,0.00,2,2,0,2,24070,49568,6778,40338,0,0,0,0,0.00,0.00,0.00,0.00
2016-10-02 03:20:00,2,40884,0,0.00,2,2,0,2,30728,50000,8037,41310,0,0,0,0,0.00,0.00,0.00,0.00
2016-10-02 03:30:00,2,43902,0,0.00,2,2,0,2,35458,50000,5147,43599,0,0,0,0,0.00,0.00,0.00,0.00
2016-10-02 03:40:00,2,43061,0,0.00,2,2,0,2,36368,47441,3428,44498,0,0,0,0,0.00,0.00,0.00,0.00
2016-10-02 03:50:00,2,45631,0,0.00,2,2,0,2,37290,50000,4734,47455,0,0,0,0,0.00,0.00,0.00,0.00
2016-10-02 04:00:00,2,49288,0,0.00,2,2,0,2,47364,50000,970,50000,0,0,0,0,0.00,0.00,0.00,0.00
2016-10-02 04:10:00,2,41343,0,0.00,2,2,0,2,35914,46357,3757,40958,0,0,0,0,0.00,0.00,0.00,0.00
2016-10-02 04:20:00,2,40775,0,0.00,2,2,0,2,33837,48625,4204,40030,0,0,0,0,0.00,0.00,0.00,0.00
2016-10-02 04:30:00,2,42823,0,0.00,2,2,0,2,38418,47023,2674,43116,0,0,0,0,0.00,0.00,0.00,0.00
2016-10-02 04:40:00,2,47180,0,0.00,2,2,0,2,41573,50000,3141,48584,0,0,0,0,0.00,0.00,0.00,0.00
2016-10-02 04:50:00,2,42931,0,0.00,2,2,0,2,33402,50000,5486,43547,0,0,0,0,0.00,0.00,0.00,0.00
2016-10-02 05:00:00,2,47362,0,0.00,2,2,0,2,40655,50000,3188,48932,0,0,0,0,0.00,0.00,0.00,0.00
2016-10-02 05:10:00,2,45343,0,0.00,2,2,0,2,36769,50000,4463,46578,0,0,0,0,0.00,0.00,0.00,0.00
2016-10-02 05:20:00,2,42566,0,0.00,2,2,0,2,35982,50000,4429,41831,0,0,0,0,0.00,0.00,0.00,0.00
2016-10-02 05:30:00,2,46848,0,0.00,2,2,0,2,39151,50000,3148,47158,0,0,0,0,0.00,0.00,0.00,0.00
2016-10-02 05:40:00,2,44111,0,0.00,2,2,0,2,39602,50000,2510,43952,0,0,0,0,0.00,0.00,0.00,0.00
2016-10-02 05:50:00,2,41564,0,0.00,2,2,0,2,33321,48756,5084,42198,0,0,0,0,0.00,0.00,0.00,0.00
2016-10-02 06:00:00,2,44861,0,0.00,2,2,0,2,37913,50000,4606,44304,0,0,0,0,0.00,0.00,0.00,0.00
2016-10-02 06:10:00,2,39309,0,0.00,2,2,0,2,35406,44081,2408,39350,0,0,0,0,0.00,0.00,0.00,0.00
2016-10-02 06:20:00,2,45370,0,0.00,2,2,0,2,38989,50000,3405,45902,0,0,0,0,0.00,0.00,0.00,0.00
2016-10-02 06:30:00,2,43893,0,0.00,2,2,0,2,39275,47613,2859,43689,0,0,0,0,0.00,0.00,0.00,0.00
2016-10-02 06:40:00,2,45057,0,0.00,2,2,0,2,38282,50000,3653,44425,0,0,0,0,0.00,0.00,0.00,0.00
2016-10-02 06:50:00,2,43781,0,0.00,2,2,0,2,34620,50000,5360,45579,0,0,0,0,0.00,0.00,0.00,0.00
2016-10-02 07:00:00,2,44743,0,0.00,2,2,0,2,37559,50000,4227,43972,0,0,0,0,0.00,0.00,0.00,0.00
2016-10-02 07:10:00,2,47809,0,0.00,2,2,0,2,42971,50000,1887,47944,0,0,0,0,0.00,0.00,0.00,0.00
2016-10-02 07:20:00,2,45312,0,0.00,2,2,0,2,34119,50000,5385,48554,0,0,0,0,0.00,0.00,0.00,0.00
2016-10-02 07:30:00,2,45620,0,0.00,2,2,0,2,39327,50000,3954,45673,0,0,0,0,0.00,0.00,0.00,0.00
2016-10-02 07:40:00,2,42841,0,0.00,2,2,0,2,41125,45657,1566,42274,0,0,0,0,0.00,0.00,0.00,0.00
2016-10-02 07:50:00,2,46775,0,0.00,2,2,0,2,40348,50000,3221,48220,0,0,0,0,0.00,0.00,0.00,0.00
2016-10-02 08:00:00,2,49340,0,0.00,2,2,0,2,46213,50000,1223,50000,0,0,0,0,0.00,0.00,0.00,0.00
2016-10-02 08:10:00,2,46327,0,0.00,2,2,0,2,38775,50000,3728,46902,0,0,0,0,0.00,0.00,0.00,0.00
2016-10-02 08:20:00,2,46083,0,0.00,2,2,0,2,41826,50000,2853,46168,0,0,0,0,0.00,0.00,0.00,0.00
2016-10-02 08:30:00,2,46533,0,0.00,2,2,0,2,40746,50000,2946,46539,0,0,0,0,0.00,0.00,0.00,0.00
2016-10-02 08:40:00,2,46371,0,0.00,2,2,0,2,36003,50000,4517,48357,0,0,0,0,0.00,0.00,0.00,0.00
2016-10-02 08:50:00,2,48760,0,0.00,2,2,0,2,43446,50000,2064,50000,0,0,0,0,0.00,0.00,0.00,0.00
2016-10-02 09:00:00,2,49517,0,0.00,2,2,0,2,47946,50000,638,49792,0,0,0,0,0.00,0.00,0.00,0.00
2016-10-02 09:10:00,2,49338,0,0.00,2,2,0,2,46388,50000,1331,50000,0,0,0,0,0.00,0.00,0.00,0.00
2016-10-02 09:20:00,2,46656,0,0.00,2,2,0,2,39570,50000,3216,48020,0,0,0,0,0.00,0.00,0.00,0.00
2016-10-02 09:30:00,2,47533,0,0.00,2,2,0,2,43319,50000,1908,47694,0,0,0,0,0.00,0.00,0.00,0.00
2016-10-02 09:40:00,2,49193,0,0.00,2,2,0,2,46930,50000,1065,49989,0,0,0,0,0.00,0.00,0.00,0.00
2016-10-02 09:50:00,2,49537,0,0.00,2,2,0,2,47685,50000,898,50000,0,0,0,0,0.00,0.00,0.00,0.00
2016-10-02 10:00:00,2,49524,0,0.00,2,2,0,2,46430,50000,1091,50000,0,0,0,0,0.00,0.00,0.00,0.00
2016-10-02 10:10:00,2,49818,0,0.00,2,2,0,2,48298,50000,508,50000,0,0,0,0,0.00,0.00,0.00,0.00
2016-10-02 10:20:00,2,49629,0,0.00,2,2,0,2,47256,50000,842,50000,0,0,0,0,0.00,0.00,0.00,0.00
2016-10-02 10:30:00,2,49040,0,0.00,2,2,0,2,45456,50000,1390,49870,0,0,0,0,0.00,0.00,0.00,0.00
2016-10-02 10:40:00,2,49066,0,0.00,2,2,0,2,46386,50000,1256,49716,0,0,0,0,0.00,0.00,0.00,0.00
2016-10-02 10:50:00,2,48797,0,0.00,2,2,0,2,44327,50000,1828,50000,0,0,0,0,0.00,0.00,0.00,0.00
2016-10-02 11:00:00,2,47443,0,0.00,2,2,0,2,42930,50000,2196,47738,0,0,0,0,0.00,0.00,0.00,0.00
2016-10-02 11:10:00,2,47352,0,0.00,2,2,0,2,40370,50000,2893,47525,0,0,0,0,0.00,0.00,0.00,0.00
2016-10-02 11:20:00,2,47605,0,0.00,2,2,0,2,42389,50000,2231,47854,0,0,0,0,0.00,0.00,0.00,0.00
2016-10-02 11:30:00,2,47390,0,0.00,2,2,0,2,41460,50000,3264,49452,0,0,0,0,0.00,0.00,0.00,0.00
2016-10-02 11:40:00,2,47982,0,0.00,2,2,0,2,40788,50000,2983,49979,0,0,0,0,0.00,0.00,0.00,0.00
2016-10-02 11:50:00,2,48695,0,0.00,2,2,0,2,45699,50000,1393,49176,0,0,0,0,0.00,0.00,0.00,0.00
2016-10-02 12:00:00,2,46734,0,0.00,2,2,0,2,40406,50000,2956,46472,0,0,0,0,0.00,0.00,0.00,0.00
2016-10-02 12:10:00,2,41252,0,0.00,2,2,0,2,36544,49207,3581,41074,0,0,0,0,0.00,0.00,0.00,0.00
2016-10-02 12:20:00,2,41236,0,0.00,2,2,0,2,37620,46470,2948,40785,0,0,0,0,0.00,0.00,0.00,0.00
2016-10-02 12:30:00,2,41360,0,0.00,2,2,0,2,32529,48017,4881,42686,0,0,0,0,0.00,0.00,0.00,0.00
2016-10-02 12:40:00,2,34844,0,0.00,2,2,0,2,28150,40000,3159,35472,0,0,0,0,0.00,0.00,0.00,0.00
2016-10-02 12:50:00,2,30151,0,0.00,2,2,0,2,21828,35980,3867,30706,0,0,0,0,0.00,0.00,0.00,0.00
2016-10-02 13:00:00,2,29620,0,0.00,2,2,0,2,26262,35389,3044,28966,0,0,0,0,0.00,0.00,0.00,0.00
2016-10-02 13:10:00,2,25433,0,0.00,2,2,0,2,18849,31900,4149,23920,0,0,0,0,0.00,0.00,0.00,0.00
2016-10-02 13:20:00,2,17456,0,0.00,2,2,0,2,13164,22758,3143,17930,0,0,0,0,0.00,0.00,0.00,0.00
2016-10-02 13:30:00,2,19408,0,0.00,2,2,0,2,13326,23494,3340,19450,0,0,0,0,0.00,0.00,0.00,0.00
2016-10-02 13:40:00,2,13919,0,0.00,2,2,0,2,9259,20015,3367,14044,0,0,0,0,0.00,0.00,0.00,0.00
2016-10-02 13:50:00,2,15001,13,0.05,2,2,0,2,5362,27748,7450,13874,0,54,21,0,0.00,0.50,0.15,0.00
2016-10-02 14:00:00,2,15889,0,0.00,2,2,0,2,4378,30947,9294,12582,0,0,0,0,0.00,0.00,0.00,0.00
2016-10-02 14:10:00,2,6538,32,0.43,2,2,0,2,3815,10319,1617,6074,10,41,14,41,0.00,1.50,0.56,0.12
2016-10-02 14:20:00,2,9888,19,0.04,2,2,0,2,5532,14472,3088,8684,10,41,14,10,0.00,0.25,0.08,0.00
2016-10-02 14:30:00,2,12009,26,0.02,2,2,0,2,6660,18586,4543,11004,10,54,20,10,0.00,0.15,0.05,0.00
2016-10-02 14:40:00,2,6399,42,0.39,2,2,0,2,2612,11908,3180,5291,0,67,29,54,0.00,1.05,0.35,0.45
2016-10-02 14:50:00,2,5129,45,0.52,2,2,0,2,2218,9198,2240,4964,10,67,21,41,0.00,1.45,0.49,0.38
2016-10-02 15:00:00,2,17967,21,0.04,2,2,0,2,3846,23283,5821,19627,10,67,23,10,0.00,0.40,0.12,0.00
2016-10-02 15:10:00,2,11796,1,0.00,2,2,0,2,5705,24279,5086,10712,0,10,3,0,0.00,0.00,0.00,0.00
2016-10-02 15:20:00,2,13001,0,0.00,2,2,0,2,8589,17997,2373,12801,0,0,0,0,0.00,0.00,0.00,0.00
2016-10-02 15:30:00,2,18834,16,0.03,2,2,0,2,10092,27953,4846,18466,0,41,20,0,0.00,0.30,0.09,0.00
2016-10-02 15:40:00,2,16926,11,0.00,2,2,0,2,3973,24420,6883,19833,0,54,22,0,0.00,0.00,0.00,0.00
2016-10-02 15:50:00,2,7711,39,0.14,2,2,0,2,2069,16666,4940,7744,0,77,34,40,0.00,0.45,0.16,0.08
2016-10-02 16:00:00,2,6782,39,0.10,2,2,0,2,1772,16441,4598,5348,0,77,35,40,0.00,0.40,0.13,0.03
2016-10-02 16:10:00,2,14366,16,0.03,2,2,0,2,3294,22250,6210,17385,0,77,26,0,0.00,0.25,0.07,0.00
2016-10-02 16:20:00,2,2582,60,0.57,2,2,0,2,1010,7502,2097,1588,10,77,21,71,0.00,1.75,0.52,0.35
2016-10-02 16:30:00,2,19893,9,0.00,2,2,0,2,12309,23218,3637,22074,0,10,3,10,0.00,0.00,0.00,0.00
2016-10-02 16:40:00,2,15359,0,0.00,2,2,0,2,8345,21491,4164,16680,0,0,0,0,0.00,0.00,0.00,0.00
2016-10-02 16:50:00,2,12119,24,0.03,2,2,0,2,3546,27888,7961,10214,0,71,31,10,0.00,0.15,0.05,0.00
2016-10-02 17:00:00,2,14215,9,0.00,2,2,0,2,9986,18779,2762,13178,0,10,3,10,0.00,0.00,0.00,0.00
2016-10-02 17:10:00,2,22379,0,0.00,2,2,0,2,19963,24244,1128,22635,0,0,0,0,0.00,0.00,0.00,0.00
2016-10-02 17:20:00,2,13638,4,0.01,2,2,0,2,3769,21950,6254,15746,0,40,12,0,0.00,0.15,0.05,0.00
2016-10-02 17:30:00,2,9873,25,0.03,2,2,0,2,2789,17428,4586,10172,10,41,15,25,0.00,0.20,0.06,0.00
2016-10-02 17:40:00,2,10886,20,0.02,2,2,0,2,4604,17539,3809,10944,0,41,17,10,0.00,0.10,0.03,0.00
2016-10-02 17:50:00,2,9563,36,0.04,2,2,0,2,2173,22097,6041,7868,0,77,36,36,0.00,0.25,0.07,0.03
2016-10-02 18:00:00,2,10872,32,0.11,2,2,0,2,4682,15901,3803,10080,10,77,21,41,0.00,0.75,0.23,0.00
2016-10-02 18:10:00,2,11253,2,0.00,2,2,0,2,8225,15529,2212,11726,0,10,4,0,0.00,0.00,0.00,0.00
2016-10-02 18:20:00,2,14490,0,0.00,2,2,0,2,9021,18509,2704,13571,0,0,0,0,0.00,0.00,0.00,0.00
2016-10-02 18:30:00,2,13868,0,0.00,2,2,0,2,9925,18988,3002,13632,0,0,0,0,0.00,0.00,0.00,0.00
2016-10-02 18:40:00,2,17200,0,0.00,2,2,0,2,11656,22449,3468,17878,0,0,0,0,0.00,0.00,0.00,0.00
2016-10-02 18:50:00,2,17275,0,0.00,2,2,0,2,15233,19050,1268,17064,0,0,0,0,0.00,0.00,0.00,0.00
2016-10-02 19:00:00,2,18003,0,0.00,2,2,0,2,15983,19622,982,17932,0,0,0,0,0.00,0.00,0.00,0.00
2016-10-02 19:10:00,2,17730,0,0.00,2,2,0,2,15443,20413,1256,17536,0,0,0,0,0.00,0.00,0.00,0.00
2016-10-02 19:20:00,2,15716,0,0.00,2,2,0,2,10448,18599,2470,16704,0,0,0,0,0.00,0.00,0.00,0.00
2016-10-02 19:30:00,2,17101,0,0.00,2,2,0,2,13887,19507,1933,17826,0,0,0,0,0.00,0.00,0.00,0.00
2016-10-02 19:40:00,2,16876,0,0.00,2,2,0,2,14144,19087,1336,17208,0,0,0,0,0.00,0.00,0.00,0.00
2016-10-02 19:50:00,2,17068,0,0.00,2,2,0,2,12424,19367,1987,17844,0,0,0,0,0.00,0.00,0.00,0.00
2016-10-02 20:00:00,2,14905,0,0.00,2,2,0,2,9239,18769,2671,14742,0,0,0,0,0.00,0.00,0.00,0.00
2016-10-02 20:10:00,2,12801,0,0.00,2,2,0,2,7991,17176,3022,13530,0,0,0,0,0.00,0.00,0.00,0.00
2016-10-02 20:20:00,2,17213,0,0.00,2,2,0,2,14739,20604,1707,16814,0,0,0,0,0.00,0.00,0.00,0.00
2016-10-02 20:30:00,2,13215,0,0.00,2,2,0,2,10093,16952,2151,12743,0,0,0,0,0.00,0.00,0.00,0.00
2016-10-02 20:40:00,2,16638,0,0.00,2,2,0,2,15006,18476,1146,16267,0,0,0,0,0.00,0.00,0.00,0.00
2016-10-02 20:50:00,2,14577,0,0.00,2,2,0,2,11122,17271,2165,14310,0,0,0,0,0.00,0.00,0.00,0.00
2016-10-02 21:00:00,2,12678,0,0.00,2,2,0,2,10281,14682,1317,12464,0,0,0,0,0.00,0.00,0.00,0.00
2016-10-02 21:10:00,2,12900,0,0.00,2,2,0,2,11183,14944,1271,12378,0,0,0,0,0.00,0.00,0.00,0.00
2016-10-02 21:20:00,2,13466,0,0.00,2,2,0,2,10984,15041,1155,13524,0,0,0,0,0.00,0.00,0.00,0.00
2016-10-02 21:30:00,2,13818,0,0.00,2,2,0,2,11676,16141,1358,13754,0,0,0,0,0.00,0.00,0.00,0.00
2016-10-02 21:40:00,2,13002,0,0.00,2,2,0,2,11553,14946,889,12997,0,0,0,0,0.00,0.00,0.00,0.00
2016-10-02 21:50:00,2,13002,0,0.00,2,2,0,2,9192,16072,2210,13577,0,0,0,0,0.00,0.00,0.00,0.00
2016-10-02 22:00:00,2,12070,0,0.00,2,2,0,2,9294,14612,1966,12456,0,0,0,0,0.00,0.00,0.00,0.00
2016-10-02 22:10:00,2,12577,0,0.00,2,2,0,2,8775,16718,2564,11570,0,0,0,0,0.00,0.00,0.00,0.00
2016-10-02 22:20:00,2,12939,0,0.00,2,2,0,2,9943,16535,2100,12496,0,0,0,0,0.00,0.00,0.00,0.00
2016-10-02 22:30:00,2,13155,0,0.00,2,2,0,2,11619,14688,1096,13134,0,0,0,0,0.00,0.00,0.00,0.00
2016-10-02 22:40:00,2,14145,0,0.00,2,2,0,2,12562,16307,1496,13776,0,0,0,0,0.00,0.00,0.00,0.00
2016-10-02 22:50:00,2,14301,0,0.00,2,2,0,2,12088,15767,1211,14906,0,0,0,0,0.00,0.00,0.00,0.00
2016-10-02 23:00:00,2,14237,0,0.00,2,2,0,2,12740,16709,1140,13995,0,0,0,0,0.00,0.00,0.00,0.00
2016-10-02 23:10:00,2,13712,0,0.00,2,2,0,2,11960,15282,867,13773,0,0,0,0,0.00,0.00,0.00,0.00
2016-10-02 23:20:00,2,14548,0,0.00,2,2,0,2,12951,16583,1093,14860,0,0,0,0,0.00,0.00,0.00,0.00
2016-10-02 23:30:00,2,15012,0,0.00,2,2,0,2,12697,17215,1449,14502,0,0,0,0,0.00,0.00,0.00,0.00
2016-10-02 23:40:00,2,15364,0,0.00,2,2,0,2,14033,17753,1197,14856,0,0,0,0,0.00,0.00,0.00,0.00
2016-10-02 23:50:00,2,15605,0,0.00,2,2,0,2,13924,17505,1022,15196,0,0,0,0,0.00,0.00,0.00,0.00
